Location: Unspecified
(40.7945°N, 111.1337°W)
Time: 22:53:48
(UTC-06:00)

Tiros 1 despin weight - Visible Passes

Search period start: 19 June 2019 00:00
Search period end: 29 June 2019 00:00
Orbit: 595 x 642 km, 48.2° (Epoch: 19 June)

Date Brightness Start Highest point End Pass type
(mag) Time Alt. Az. Time Alt. Az. Time Alt. Az.
19 Jun ? 01:09:10 18° ENE 01:09:10 18° ENE 01:10:25 10° ENE visible
19 Jun ? 02:46:11 33° WNW 02:47:46 50° NNW 02:52:04 10° NE visible
19 Jun ? 04:26:02 10° WNW 04:29:58 31° N 04:33:54 10° ENE visible
20 Jun ? 01:24:22 39° ENE 01:24:22 39° ENE 01:27:11 10° ENE visible
20 Jun ? 03:01:22 15° WNW 03:04:37 37° NNW 03:08:43 10° NE visible
20 Jun ? 04:42:55 10° WNW 04:46:55 32° N 04:50:55 10° ENE visible
21 Jun ? 01:39:24 63° NNW 01:39:26 63° NNW 01:43:49 10° ENE visible
21 Jun ? 03:17:34 10° WNW 03:21:32 31° N 03:25:30 10° ENE visible
21 Jun ? 04:59:39 10° NW 05:03:49 39° NNE 05:07:59 10° E visible
22 Jun ? 00:17:12 22° ENE 00:17:12 22° ENE 00:18:53 10° ENE visible
22 Jun ? 01:54:11 26° WNW 01:56:13 43° NNW 02:00:27 10° NE visible
22 Jun ? 03:34:32 10° WNW 03:38:29 31° N 03:42:25 10° ENE visible
22 Jun ? 05:16:18 10° WNW 05:20:38 56° NNE 05:24:59 10° ESE visible
23 Jun ? 00:31:29 75° NE 00:31:29 75° NE 00:35:35 10° ENE visible
23 Jun ? 02:09:03 10° WNW 02:13:06 34° N 02:17:08 10° NE visible
23 Jun ? 03:51:22 10° NW 03:55:25 35° N 03:59:28 10° ENE visible
23 Jun ? 23:02:13 10° SSW 23:06:25 39° SE 23:10:30 10° ENE visible
24 Jun ? 00:43:30 10° W 00:47:52 53° NNW 00:52:12 10° NE visible
24 Jun ? 02:26:06 10° WNW 02:30:02 31° N 02:33:59 10° ENE visible
24 Jun ? 04:08:02 10° NW 04:12:17 45° NNE 04:16:31 10° E visible
24 Jun ? 21:39:38 10° SSE 21:41:56 14° SE 21:44:12 10° E visible
24 Jun ? 23:18:26 10° SW 23:22:53 72° SSE 23:27:19 10° ENE visible
25 Jun ? 01:00:31 10° W 01:04:41 38° NNW 01:08:50 10° NE visible
25 Jun ? 02:43:00 10° WNW 02:46:59 32° N 02:50:58 10° ENE visible
25 Jun ? 04:24:39 10° WNW 04:29:04 67° NNE 04:33:27 10° ESE visible
25 Jun ? 21:54:26 10° SSW 21:58:14 27° SE 22:02:00 10° E visible
25 Jun ? 23:35:04 10° WSW 23:39:32 68° NNW 23:43:58 10° ENE visible
26 Jun ? 01:17:35 10° WNW 01:21:36 32° N 01:25:36 10° ENE visible
26 Jun ? 02:59:46 10° NW 03:03:54 38° NNE 03:08:01 10° E visible
26 Jun ? 04:41:19 10° WNW 04:45:42 73° SSW 04:50:05 10° SE visible
26 Jun ? 22:10:19 10° SW 22:14:40 51° SE 22:19:00 10° ENE visible
26 Jun ? 23:52:00 10° W 23:56:18 45° NNW 00:00:35 10° NE visible
27 Jun ? 01:34:35 10° WNW 01:38:33 31° N 01:42:29 10° ENE visible
27 Jun ? 03:16:24 10° NW 03:20:44 52° NNE 03:25:03 10° E visible
27 Jun ? 04:58:07 10° WNW 05:02:13 39° SW 05:06:18 10° SSE visible
27 Jun ? 22:26:44 10° WSW 22:31:15 90° NNW 22:35:43 10° ENE visible
28 Jun ? 00:09:03 10° WNW 00:13:10 35° NNW 00:17:15 10° NE visible
28 Jun ? 01:51:26 10° WNW 01:55:29 34° N 01:59:31 10° ENE visible
28 Jun ? 03:33:01 10° WNW 03:37:28 83° NNE 03:41:52 10° ESE visible
28 Jun ? 05:15:21 10° W 05:18:36 20° SW 05:21:50 10° S visible
28 Jun ? 22:43:31 10° WSW 22:47:57 56° NNW 22:52:20 10° ENE visible
